TimeCST,TemperatureF,Dew PointF,Humidity,Sea Level PressureIn,VisibilityMPH,Wind Direction,Wind SpeedMPH,Gust SpeedMPH,PrecipitationIn,Events,Conditions,WindDirDegrees,DateUTC
12:53 AM,42.1,35.1,76,30.26,10.0,North,8.1,-,N/A,,Clear,10,2013-01-24 06:53:00
1:53 AM,41.0,30.0,65,30.28,10.0,NNE,9.2,-,N/A,,Clear,30,2013-01-24 07:53:00
2:53 AM,37.9,28.9,70,30.31,10.0,NE,8.1,-,N/A,,Mostly Cloudy,40,2013-01-24 08:53:00
3:53 AM,37.9,24.1,57,30.32,10.0,NE,12.7,20.7,N/A,,Overcast,40,2013-01-24 09:53:00
4:53 AM,36.0,21.9,57,30.35,10.0,NE,15.0,24.2,N/A,,Overcast,40,2013-01-24 10:53:00
5:53 AM,34.0,21.9,61,30.39,10.0,ENE,19.6,-,N/A,,Overcast,60,2013-01-24 11:53:00
6:53 AM,30.9,19.9,64,30.44,10.0,ENE,21.9,-,N/A,,Overcast,60,2013-01-24 12:53:00
7:53 AM,30.0,19.0,64,30.45,10.0,NE,18.4,26.5,N/A,,Overcast,50,2013-01-24 13:53:00
8:53 AM,30.0,18.0,61,30.48,10.0,NE,17.3,29.9,N/A,,Overcast,40,2013-01-24 14:53:00
9:53 AM,30.0,18.0,61,30.50,10.0,ENE,18.4,27.6,N/A,,Mostly Cloudy,60,2013-01-24 15:53:00
10:53 AM,30.0,19.0,64,30.51,10.0,ENE,19.6,27.6,N/A,,Overcast,60,2013-01-24 16:53:00
11:53 AM,30.9,19.0,61,30.47,10.0,NE,21.9,25.3,N/A,,Overcast,50,2013-01-24 17:53:00
12:53 PM,30.0,17.1,59,30.45,10.0,NE,16.1,-,N/A,,Overcast,50,2013-01-24 18:53:00
1:53 PM,32.0,17.1,54,30.41,10.0,NE,15.0,-,N/A,,Overcast,50,2013-01-24 19:53:00
2:53 PM,32.0,16.0,52,30.39,10.0,ENE,18.4,-,N/A,,Overcast,60,2013-01-24 20:53:00
3:53 PM,33.1,17.1,52,30.37,10.0,ENE,16.1,-,N/A,,Overcast,60,2013-01-24 21:53:00
4:53 PM,33.1,17.1,52,30.36,10.0,ENE,12.7,-,N/A,,Overcast,60,2013-01-24 22:53:00
5:53 PM,33.1,19.0,56,30.35,10.0,NE,12.7,-,N/A,,Overcast,50,2013-01-24 23:53:00
6:53 PM,34.0,19.9,56,30.35,10.0,ENE,9.2,-,N/A,,Overcast,60,2013-01-25 00:53:00
7:53 PM,34.0,19.9,56,30.33,10.0,ENE,9.2,-,N/A,,Overcast,60,2013-01-25 01:53:00
8:53 PM,34.0,21.0,59,30.30,10.0,NE,10.4,-,N/A,,Overcast,50,2013-01-25 02:53:00
9:22 PM,33.8,21.2,60,30.25,10.0,ENE,11.5,-,N/A,,Overcast,70,2013-01-25 03:22:00
9:53 PM,35.1,21.0,57,30.28,10.0,NNE,9.2,-,N/A,,Overcast,30,2013-01-25 03:53:00
10:53 PM,34.0,21.9,61,30.26,10.0,ENE,10.4,-,N/A,,Overcast,60,2013-01-25 04:53:00
11:53 PM,35.1,21.9,59,30.23,10.0,ENE,10.4,-,0.00,,Overcast,60,2013-01-25 05:53:00